Weather History for Lakeville, MN

Change the Weather History Date:

Friday, November 16, 2012

  Actual Average Record
Temperature  
Mean Temperature 28 °F -  
Max Temperature 42 °F 41 °F 71 °F (1953)
Min Temperature 15 °F 24 °F 0 °F (1959)
Degree Days  
Heating Degree Days 36    
Moisture  
Dew Point 19 °F    
Average Humidity 66    
Maximum Humidity 93    
Minimum Humidity 39    
Precipitation  
Precipitation 0.00 in - - ()
Sea Level Pressure  
Sea Level Pressure 30.41 in    
Wind  
Wind Speed 2 mph (SE)    
Max Wind Speed 8 mph    
Max Gust Speed -    
Visibility 10 miles    
Events      
Averages and records for this station are not official NWS values.
T = Trace of Precipitation, MM = Missing Value Source: NWS Daily Summary

Daily Weather History Graph

Daily Weather History Graph

Search for Another Location

Airport:

Trip Planner

Search our weather history database for the weather conditions in past years. The results will help you decide how hot, cold, wet, or windy it might be!

Date:

Astronomy

Nov. 16, 2012 Rise Set
Actual Time 7:11 AM CST 4:43 PM CST
Civil Twilight 6:39 AM CST 5:15 PM CST
Nautical Twilight 6:04 AM CST 5:50 PM CST
Astronomical Twilight 5:29 AM CST 6:25 PM CST
Moon 10:08 AM CST (11/16) 7:42 PM CST (11/16)
Length of Visible Light 10h 35m
Length of Day
9h 31m
Waxing Crescent, 12% of the Moon is Illuminated
Nov 16
Waxing Crescent
Nov 20
First Quarter
Nov 28
Full
Dec 6
Last Quarter
Dec 13
New

Hourly Weather History & Observations

Time (CST) Temp. Windchill Dew Point Humidity Pressure Visibility Wind Dir Wind Speed Gust Speed Precip Events Conditions
12:14 AM 24.8 °F 19.1 °F 12.2 °F 59% 30.45 in 10.0 mi North 4.6 mph - N/A   Clear
12:34 AM 24.8 °F - 12.2 °F 59% 30.46 in 10.0 mi Calm Calm - N/A   Clear
12:54 AM 24.8 °F - 12.2 °F 59% 30.46 in 10.0 mi Calm Calm - N/A   Clear
1:14 AM 21.2 °F 16.4 °F 12.2 °F 68% 30.46 in 10.0 mi North 3.5 mph - N/A   Clear
1:34 AM 23.0 °F 18.4 °F 12.2 °F 63% 30.47 in 10.0 mi North 3.5 mph - N/A   Clear
1:53 AM 23.0 °F 18.4 °F 12.2 °F 63% 30.47 in 10.0 mi NNW 3.5 mph - N/A   Clear
2:14 AM 19.4 °F 12.8 °F 12.2 °F 74% 30.48 in 10.0 mi NNW 4.6 mph - N/A   Clear
2:34 AM 21.2 °F 16.4 °F 12.2 °F 68% 30.47 in 10.0 mi North 3.5 mph - N/A   Clear
2:53 AM 21.2 °F - 12.2 °F 68% 30.47 in 10.0 mi Calm Calm - N/A   Clear
3:14 AM 21.2 °F - 12.2 °F 68% 30.47 in 10.0 mi Calm Calm - N/A   Clear
3:34 AM 23.0 °F - 12.2 °F 63% 30.47 in 10.0 mi Calm Calm - N/A   Clear
3:53 AM 21.2 °F - 12.2 °F 68% 30.47 in 10.0 mi Calm Calm - N/A   Clear
4:14 AM 19.4 °F - 10.4 °F 68% 30.47 in 10.0 mi Calm Calm - N/A   Clear
4:34 AM 19.4 °F - 12.2 °F 74% 30.46 in 10.0 mi Calm Calm - N/A   Clear
4:53 AM 21.2 °F - 12.2 °F 68% 30.46 in 10.0 mi Calm Calm - N/A   Clear
5:14 AM 21.2 °F - 12.2 °F 68% 30.46 in 10.0 mi Calm Calm - N/A   Clear
5:34 AM 21.2 °F - 12.2 °F 68% 30.46 in 10.0 mi Calm Calm - N/A   Clear
5:53 AM 19.4 °F - 12.2 °F 74% 30.46 in 10.0 mi Calm Calm - N/A   Clear
6:14 AM 15.8 °F - 12.2 °F 86% 30.45 in 10.0 mi Calm Calm - N/A   Clear
6:33 AM 19.4 °F - 12.2 °F 74% 30.46 in 10.0 mi Calm Calm - N/A   Clear
6:54 AM 15.8 °F - 12.2 °F 86% 30.46 in 10.0 mi Calm Calm - N/A   Clear
7:14 AM 15.8 °F - 12.2 °F 86% 30.46 in 10.0 mi Calm Calm - N/A   Clear
7:33 AM 17.6 °F - 15.8 °F 93% 30.46 in 10.0 mi Calm Calm - N/A   Clear
7:54 AM 19.4 °F - 15.8 °F 86% 30.46 in 10.0 mi Calm Calm - N/A   Clear
8:14 AM 21.2 °F - 15.8 °F 80% 30.46 in 10.0 mi Calm Calm - N/A   Clear
8:34 AM 24.8 °F - 15.8 °F 69% 30.47 in 10.0 mi Calm Calm - N/A   Clear
8:54 AM 24.8 °F - 17.6 °F 74% 30.47 in 10.0 mi Calm Calm - N/A   Clear
9:14 AM 26.6 °F - 15.8 °F 64% 30.47 in 10.0 mi Calm Calm - N/A   Clear
9:34 AM 28.4 °F - 17.6 °F 64% 30.47 in 10.0 mi Calm Calm - N/A   Clear
9:54 AM 30.2 °F 26.7 °F 17.6 °F 60% 30.47 in 10.0 mi SE 3.5 mph - N/A   Clear
10:14 AM 32.0 °F 27.5 °F 19.4 °F 60% 30.47 in 10.0 mi ESE 4.6 mph - N/A   Clear
10:34 AM 33.8 °F 29.6 °F 19.4 °F 56% 30.48 in 10.0 mi SE 4.6 mph - N/A   Clear
10:54 AM 33.8 °F 30.8 °F 21.2 °F 60% 30.47 in 10.0 mi SE 3.5 mph - N/A   Clear
11:14 AM 35.6 °F - 21.2 °F 56% 30.47 in 10.0 mi Calm Calm - N/A   Clear
11:33 AM 35.6 °F 32.8 °F 21.2 °F 56% 30.47 in 10.0 mi East 3.5 mph - N/A   Clear
11:54 AM 37.4 °F - 21.2 °F 52% 30.46 in 10.0 mi Calm Calm - N/A   Clear
12:14 PM 37.4 °F 34.9 °F 21.2 °F 52% 30.45 in 10.0 mi South 3.5 mph - N/A   Clear
12:33 PM 39.2 °F 35.0 °F 21.2 °F 49% 30.44 in 10.0 mi SSE 5.8 mph - N/A   Clear
12:54 PM 39.2 °F - 21.2 °F 49% 30.43 in 10.0 mi Calm Calm - N/A   Clear
1:14 PM 41.0 °F - 19.4 °F 42% 30.42 in 10.0 mi Calm Calm - N/A   Clear
1:33 PM 41.0 °F - 19.4 °F 42% 30.42 in 10.0 mi Calm Calm - N/A   Clear
1:54 PM 42.8 °F 39.3 °F 19.4 °F 39% 30.41 in 10.0 mi ESE 5.8 mph - N/A   Clear
2:14 PM 42.8 °F 39.3 °F 21.2 °F 42% 30.40 in 10.0 mi ESE 5.8 mph - N/A   Clear
2:33 PM 42.8 °F 40.1 °F 21.2 °F 42% 30.39 in 10.0 mi ESE 4.6 mph - N/A   Clear
2:54 PM 42.8 °F 41.1 °F 21.2 °F 42% 30.39 in 10.0 mi SSE 3.5 mph - N/A   Clear
3:14 PM 42.8 °F 41.1 °F 21.2 °F 42% 30.39 in 10.0 mi SE 3.5 mph - N/A   Clear
3:33 PM 42.8 °F 38.6 °F 21.2 °F 42% 30.38 in 10.0 mi SE 6.9 mph - N/A   Clear
3:54 PM 41.0 °F 36.4 °F 21.2 °F 45% 30.37 in 10.0 mi SE 6.9 mph - N/A   Clear
4:14 PM 39.2 °F 35.0 °F 21.2 °F 49% 30.36 in 10.0 mi SE 5.8 mph - N/A   Clear
4:33 PM 39.2 °F 35.0 °F 23.0 °F 52% 30.36 in 10.0 mi SE 5.8 mph - N/A   Clear
4:54 PM 37.4 °F 34.9 °F 23.0 °F 56% 30.36 in 10.0 mi SE 3.5 mph - N/A   Clear
5:14 PM 37.4 °F - 23.0 °F 56% 30.35 in 10.0 mi Calm Calm - N/A   Clear
5:33 PM 35.6 °F 31.7 °F 23.0 °F 60% 30.35 in 10.0 mi SE 4.6 mph - N/A   Clear
5:54 PM 35.6 °F 32.8 °F 23.0 °F 60% 30.35 in 10.0 mi SE 3.5 mph - N/A   Clear
6:13 PM 35.6 °F 32.8 °F 23.0 °F 60% 30.35 in 10.0 mi SE 3.5 mph - N/A   Clear
6:34 PM 33.8 °F - 23.0 °F 65% 30.34 in 10.0 mi Calm Calm - N/A   Clear
6:54 PM 33.8 °F - 23.0 °F 65% 30.34 in 10.0 mi Calm Calm - N/A   Clear
7:13 PM 30.2 °F 25.4 °F 23.0 °F 75% 30.33 in 10.0 mi ESE 4.6 mph - N/A   Clear
7:54 PM 28.4 °F 24.6 °F 23.0 °F 80% 30.33 in 10.0 mi East 3.5 mph - N/A   Clear
8:13 PM 28.4 °F - 23.0 °F 80% 30.33 in 10.0 mi Calm Calm - N/A   Clear
8:34 PM 28.4 °F - 23.0 °F 80% 30.34 in 10.0 mi Calm Calm - N/A   Clear
8:54 PM 28.4 °F 24.6 °F 23.0 °F 80% 30.33 in 10.0 mi SE 3.5 mph - N/A   Clear
9:13 PM 30.2 °F 25.4 °F 24.8 °F 80% 30.32 in 10.0 mi SSE 4.6 mph - N/A   Clear
9:54 PM 30.2 °F 22.6 °F 26.6 °F 86% 30.32 in 10.0 mi SSE 8.1 mph - N/A   Clear
10:13 PM 30.2 °F 24.3 °F 26.6 °F 86% 30.32 in 10.0 mi SSE 5.8 mph - N/A   Clear
10:34 PM 30.2 °F - 26.6 °F 86% 30.32 in 10.0 mi Calm Calm - N/A   Clear
10:54 PM 30.2 °F - 26.6 °F 86% 30.32 in 10.0 mi Calm Calm - N/A   Clear
11:13 PM 30.2 °F - 26.6 °F 86% 30.32 in 10.0 mi Calm Calm - N/A   Clear
11:34 PM 30.2 °F 26.7 °F 26.6 °F 86% 30.32 in 10.0 mi SSE 3.5 mph - N/A   Clear
11:54 PM 30.2 °F - 26.6 °F 86% 30.32 in 10.0 mi Calm Calm - N/A   Clear